Regional Weather Roundup
Issued by NWS

Home | Current Version | Previous Version | Text Only | Print | Product List | Glossary On
Versions: 1 2 3 4 5 6 7 8 9 10 11 12 13 14 15 16 17 18 19 20 21 22 23 24 25 26 27 28 29 30 31 32 33 34 35 36 37 38 39 40 41 42 43 44 45 46 47 48 49 50
000
ASUS43 KLSX 290410
RWRMO

WEATHER SUMMARY FOR MISSOURI
NATIONAL WEATHER SERVICE SPRINGFIELD MO
1100 PM CDT SUN MAY 28 2017

NOTE: "FAIR" INDICATES FEW OR NO CLOUDS BELOW 12,000 FEET WITH NO
       SIGNIFICANT WEATHER AND/OR OBSTRUCTIONS TO VISIBILITY.
       CURRENT SKY AND/OR WEATHER CONDITIONS ARE NOT AVAILABLE FOR
       CHILLICOTHE AND FARMINGTON.

MOZ001>031-035>038-043-044-053-054-290500-
...NORTHERN AND WESTERN MISSOURI...

CITY           SKY/WX    TMP DP  RH WIND       PRES   REMARKS
KANSAS CTY INT CLEAR     65  53  65 NW6       29.92R
KANSAS C DTWN  CLEAR     70  51  51 CALM      29.91R
LEE`S SUMMIT   CLEAR     67  52  58 SW7       29.92R
ST JOSEPH      CLEAR     61  53  75 N5        29.91S
CHILLICOTHE      N/A     70  48  45 VRB5      29.90R
KIRKSVILLE     MOCLDY    63  51  65 NW5       29.88R

$$
MOZ066>068-077>081-088>096-101>105-290500-
...SOUTHWEST MISSOURI...

CITY           SKY/WX    TMP DP  RH WIND       PRES   REMARKS
SPRINGFIELD    CLEAR     63  56  78 S6        29.97S
JOPLIN         CLEAR     62  56  80 S7        29.98R
BRANSON        CLEAR     64  54  68 CALM      30.00S

$$
MOZ032>034-039>042-045>050-055>058-069>072-290500-
...CENTRAL MISSOURI...

CITY           SKY/WX    TMP DP  RH WIND       PRES   REMARKS
COLUMBIA       CLEAR     63  54  72 SW6       29.91R
JEFFERSON CITY CLEAR     66  58  75 E7        29.92R
ROLLA          CLEAR     60  56  86 S9        29.93R
SEDALIA        CLEAR     67  56  67 SW7       29.93R
WHITEMAN AFB   CLEAR     62  57  84 SW7       29.90R
WARRENSBURG    CLEAR     63  52  67 S5        29.91R
OSAGE BEACH    CLEAR     59  58  96 CALM      29.94S

$$
MOZ051-052-059>065-290500-
...EAST CENTRAL MISSOURI...

CITY           SKY/WX    TMP DP  RH WIND       PRES   REMARKS
ST LOUIS INTL  PTCLDY    71  56  58 SW9       29.90R
SPIRIT OF STL  CLEAR     63  58  83 W6        29.89R
ST CHARLES     CLEAR     62  60  93 N3        29.88R

$$
MOZ072>076-082>087-097>100-106>115-290500-
...SOUTH CENTRAL AND SOUTHEAST MISSOURI...

CITY           SKY/WX    TMP DP  RH WIND       PRES   REMARKS
CAPE GIRARDEAU PTCLDY    65  61  87 SW5       29.91S
FARMINGTON     CLEAR     61  58  90 CALM      29.94S
WEST PLAINS    CLEAR     59  55  87 CALM      29.98S

$$




USA.gov is the U.S. government's official web portal to all federal, state and local government web resources and services.